Time,TemperatureF,DewpointF,PressureIn,WindDirection,WindDirectionDegrees,WindSpeedMPH,WindSpeedGustMPH,Humidity,HourlyPrecipIn,Conditions,Clouds,dailyrainin,SoftwareType,DateUTC
2013-09-23 00:03:00,49.8,45.0,30.23,SSE,166,3.3,3.3,82,0.00,,,0.00,TxWx,2013-09-23 05:03:00,
2013-09-23 00:08:00,49.8,45.0,30.24,SSE,164,1.5,1.5,82,0.00,,,0.00,TxWx,2013-09-23 05:08:00,
2013-09-23 00:13:00,49.9,45.0,30.24,SSE,166,2.7,2.7,82,0.00,,,0.00,TxWx,2013-09-23 05:13:00,
2013-09-23 00:18:00,50.0,45.0,30.24,SSE,166,3.9,3.9,82,0.00,,,0.00,TxWx,2013-09-23 05:18:00,
2013-09-23 00:23:00,49.9,45.0,30.23,SSE,165,2.4,2.7,82,0.00,,,0.00,TxWx,2013-09-23 05:23:00,
2013-09-23 00:28:00,49.9,44.0,30.23,SSE,165,3.0,3.0,81,0.00,,,0.00,TxWx,2013-09-23 05:28:00,
2013-09-23 00:33:00,49.9,44.0,30.24,SSE,166,3.6,3.6,81,0.00,,,0.00,TxWx,2013-09-23 05:33:00,
2013-09-23 00:38:00,49.8,44.0,30.24,SSE,167,3.0,3.0,81,0.00,,,0.00,TxWx,2013-09-23 05:38:00,
2013-09-23 00:43:00,49.7,44.0,30.24,SSE,166,1.2,1.5,81,0.00,,,0.00,TxWx,2013-09-23 05:43:00,
2013-09-23 00:48:00,49.7,44.0,30.24,SSE,166,1.2,1.5,81,0.00,,,0.00,TxWx,2013-09-23 05:48:00,
2013-09-23 00:53:00,49.6,44.0,30.24,SSE,166,3.0,3.9,81,0.00,,,0.00,TxWx,2013-09-23 05:53:00,
2013-09-23 00:58:00,49.4,43.0,30.24,South,180,3.3,3.6,81,0.00,,,0.00,TxWx,2013-09-23 05:58:00,
2013-09-23 01:03:00,49.3,43.0,30.24,SSE,166,3.6,4.2,81,0.00,,,0.00,TxWx,2013-09-23 06:03:00,
2013-09-23 01:08:00,49.4,44.0,30.24,SSE,164,3.9,4.5,82,0.00,,,0.00,TxWx,2013-09-23 06:08:00,
2013-09-23 01:13:00,49.3,43.0,30.24,South,169,2.1,2.1,81,0.00,,,0.00,TxWx,2013-09-23 06:13:00,
2013-09-23 01:18:00,49.4,44.0,30.24,SSE,166,2.4,2.7,82,0.00,,,0.00,TxWx,2013-09-23 06:18:00,
2013-09-23 01:23:00,49.3,43.0,30.24,South,169,1.8,1.8,81,0.00,,,0.00,TxWx,2013-09-23 06:23:00,
2013-09-23 01:28:00,49.2,43.0,30.25,SSE,163,3.6,4.2,81,0.00,,,0.00,TxWx,2013-09-23 06:28:00,
2013-09-23 01:33:00,49.2,43.0,30.25,SSE,167,2.7,2.7,81,0.00,,,0.00,TxWx,2013-09-23 06:33:00,
2013-09-23 01:38:00,49.1,43.0,30.25,SSE,162,4.5,4.5,81,0.00,,,0.00,TxWx,2013-09-23 06:38:00,
2013-09-23 01:43:00,49.1,44.0,30.25,SSE,168,4.5,6.0,82,0.00,,,0.00,TxWx,2013-09-23 06:43:00,
2013-09-23 01:48:00,49.0,43.0,30.25,SSE,163,2.7,2.7,81,0.00,,,0.00,TxWx,2013-09-23 06:48:00,
2013-09-23 01:53:00,48.9,44.0,30.25,SSE,165,2.7,2.7,82,0.00,,,0.00,TxWx,2013-09-23 06:53:00,
2013-09-23 01:58:00,48.8,44.0,30.24,SSE,163,3.3,3.3,82,0.00,,,0.00,TxWx,2013-09-23 06:58:00,
2013-09-23 02:03:00,48.7,44.0,30.25,SSE,165,2.4,2.7,82,0.00,,,0.00,TxWx,2013-09-23 07:03:00,
2013-09-23 02:08:00,48.5,44.0,30.24,SSE,165,5.7,5.7,82,0.00,,,0.00,TxWx,2013-09-23 07:08:00,
2013-09-23 02:13:00,48.4,43.0,30.24,SSE,165,1.8,2.4,82,0.00,,,0.00,TxWx,2013-09-23 07:13:00,
2013-09-23 02:18:00,48.3,43.0,30.24,SSE,165,3.3,3.3,83,0.00,,,0.00,TxWx,2013-09-23 07:18:00,
2013-09-23 02:23:00,48.2,43.0,30.24,SSE,168,2.4,2.4,83,0.00,,,0.00,TxWx,2013-09-23 07:23:00,
2013-09-23 02:28:00,48.0,43.0,30.24,SSE,164,3.6,4.2,83,0.00,,,0.00,TxWx,2013-09-23 07:28:00,
2013-09-23 02:33:00,48.0,43.0,30.24,SSE,165,2.4,2.4,83,0.00,,,0.00,TxWx,2013-09-23 07:33:00,
2013-09-23 02:38:00,47.8,43.0,30.24,SSE,163,2.1,2.4,84,0.00,,,0.00,TxWx,2013-09-23 07:38:00,
2013-09-23 02:43:00,47.8,43.0,30.24,SSE,165,2.1,2.4,84,0.00,,,0.00,TxWx,2013-09-23 07:43:00,
2013-09-23 02:48:00,47.8,43.0,30.24,SSE,166,1.5,1.8,84,0.00,,,0.00,TxWx,2013-09-23 07:48:00,
2013-09-23 02:53:00,47.8,43.0,30.24,SSE,168,1.8,2.1,84,0.00,,,0.00,TxWx,2013-09-23 07:53:00,
2013-09-23 02:58:00,47.6,43.0,30.24,SSE,165,1.8,1.8,84,0.00,,,0.00,TxWx,2013-09-23 07:58:00,
2013-09-23 03:03:00,47.5,43.0,30.24,SSE,164,0.9,0.9,84,0.00,,,0.00,TxWx,2013-09-23 08:03:00,
2013-09-23 03:08:00,47.5,44.0,30.24,South,180,1.5,1.8,85,0.00,,,0.00,TxWx,2013-09-23 08:08:00,
2013-09-23 03:13:00,47.3,43.0,30.24,SSE,163,3.9,3.9,85,0.00,,,0.00,TxWx,2013-09-23 08:13:00,
2013-09-23 03:18:00,47.1,43.0,30.24,SSE,168,1.8,1.8,85,0.00,,,0.00,TxWx,2013-09-23 08:18:00,
2013-09-23 03:24:00,47.0,43.0,30.24,SSE,165,0.9,1.2,85,0.00,,,0.00,TxWx,2013-09-23 08:24:00,
2013-09-23 03:28:00,46.9,43.0,30.24,SSE,165,2.7,2.7,85,0.00,,,0.00,TxWx,2013-09-23 08:28:00,
2013-09-23 03:33:00,46.7,43.0,30.24,SSE,165,1.5,1.5,85,0.00,,,0.00,TxWx,2013-09-23 08:33:00,
2013-09-23 03:38:00,46.4,42.0,30.23,SSE,162,1.5,1.5,86,0.00,,,0.00,TxWx,2013-09-23 08:38:00,
2013-09-23 03:43:00,46.2,42.0,30.24,SSE,166,2.1,2.4,86,0.00,,,0.00,TxWx,2013-09-23 08:43:00,
2013-09-23 03:48:00,46.3,42.0,30.24,SSE,166,2.4,2.4,87,0.00,,,0.00,TxWx,2013-09-23 08:48:00,
2013-09-23 03:53:00,46.4,42.0,30.24,SSE,164,2.4,2.7,87,0.00,,,0.00,TxWx,2013-09-23 08:53:00,
2013-09-23 03:58:00,46.5,43.0,30.24,SSE,163,3.3,3.3,87,0.00,,,0.00,TxWx,2013-09-23 08:58:00,
2013-09-23 04:03:00,46.5,43.0,30.24,SSE,165,2.1,2.1,87,0.00,,,0.00,TxWx,2013-09-23 09:03:00,
2013-09-23 04:09:00,46.7,43.0,30.24,SSE,165,1.5,1.5,87,0.00,,,0.00,TxWx,2013-09-23 09:09:00,
2013-09-23 04:14:00,46.6,43.0,30.24,SSE,165,2.7,2.7,87,0.00,,,0.00,TxWx,2013-09-23 09:14:00,
2013-09-23 04:19:00,46.5,42.0,30.24,SSE,164,3.3,3.3,87,0.00,,,0.00,TxWx,2013-09-23 09:19:00,
2013-09-23 04:24:00,46.4,42.0,30.24,SSE,167,2.4,2.4,87,0.00,,,0.00,TxWx,2013-09-23 09:24:00,
2013-09-23 04:29:00,46.4,42.0,30.24,SSE,164,2.1,2.1,87,0.00,,,0.00,TxWx,2013-09-23 09:29:00,
2013-09-23 04:34:00,46.3,42.0,30.24,SSE,164,2.1,2.4,87,0.00,,,0.00,TxWx,2013-09-23 09:34:00,
2013-09-23 04:39:00,46.4,42.0,30.25,SSE,163,1.8,2.1,87,0.00,,,0.00,TxWx,2013-09-23 09:39:00,
2013-09-23 04:44:00,46.4,42.0,30.25,SSE,164,0.9,0.9,87,0.00,,,0.00,TxWx,2013-09-23 09:44:00,
2013-09-23 04:49:00,46.2,42.0,30.25,SSE,166,2.4,2.4,87,0.00,,,0.00,TxWx,2013-09-23 09:49:00,
2013-09-23 04:54:00,46.3,42.0,30.25,SSE,165,2.7,3.0,87,0.00,,,0.00,TxWx,2013-09-23 09:54:00,
2013-09-23 04:59:00,46.1,42.0,30.25,SSE,162,1.2,1.2,87,0.00,,,0.00,TxWx,2013-09-23 09:59:00,
2013-09-23 05:04:00,46.1,42.0,30.25,SSE,163,1.2,1.5,87,0.00,,,0.00,TxWx,2013-09-23 10:04:00,
2013-09-23 05:09:00,45.9,42.0,30.25,SSE,162,1.5,1.5,87,0.00,,,0.00,TxWx,2013-09-23 10:09:00,
2013-09-23 05:14:00,45.9,42.0,30.25,South,180,1.5,1.5,87,0.00,,,0.00,TxWx,2013-09-23 10:14:00,
2013-09-23 05:19:00,45.4,41.0,30.25,SSE,164,2.1,2.4,87,0.00,,,0.00,TxWx,2013-09-23 10:19:00,
2013-09-23 05:24:00,45.2,41.0,30.25,SSE,163,0.9,0.9,87,0.00,,,0.00,TxWx,2013-09-23 10:24:00,
2013-09-23 05:29:00,44.9,41.0,30.25,SSE,164,1.2,1.2,87,0.00,,,0.00,TxWx,2013-09-23 10:29:00,
2013-09-23 05:34:00,44.8,42.0,30.26,SSE,162,1.2,1.5,88,0.00,,,0.00,TxWx,2013-09-23 10:34:00,
2013-09-23 05:39:00,44.6,42.0,30.25,SSE,164,0.6,0.6,88,0.00,,,0.00,TxWx,2013-09-23 10:39:00,
2013-09-23 05:44:00,44.6,42.0,30.26,SSE,163,3.0,3.0,88,0.00,,,0.00,TxWx,2013-09-23 10:44:00,
2013-09-23 05:49:00,44.7,42.0,30.26,SSE,163,2.1,2.7,89,0.00,,,0.00,TxWx,2013-09-23 10:49:00,
2013-09-23 05:54:00,44.7,42.0,30.26,SSE,162,1.5,1.8,89,0.00,,,0.00,TxWx,2013-09-23 10:54:00,
2013-09-23 05:59:00,44.7,42.0,30.26,SSE,164,1.8,1.8,89,0.00,,,0.00,TxWx,2013-09-23 10:59:00,
2013-09-23 06:04:00,44.8,42.0,30.26,SSE,167,1.5,1.5,89,0.00,,,0.00,TxWx,2013-09-23 11:04:00,
2013-09-23 06:09:00,44.9,42.0,30.27,SSE,166,1.5,1.8,89,0.00,,,0.00,TxWx,2013-09-23 11:09:00,
2013-09-23 06:14:00,44.9,42.0,30.27,SSE,165,1.2,1.2,89,0.00,,,0.00,TxWx,2013-09-23 11:14:00,
2013-09-23 06:19:00,44.9,42.0,30.27,SSE,164,2.4,2.4,89,0.00,,,0.00,TxWx,2013-09-23 11:19:00,
2013-09-23 06:24:00,45.0,42.0,30.27,SSE,165,1.2,1.2,89,0.00,,,0.00,TxWx,2013-09-23 11:24:00,
2013-09-23 06:29:00,45.0,42.0,30.27,SSE,166,2.4,2.4,89,0.00,,,0.00,TxWx,2013-09-23 11:29:00,
2013-09-23 06:34:00,45.1,42.0,30.27,SSE,164,1.8,1.8,89,0.00,,,0.00,TxWx,2013-09-23 11:34:00,
2013-09-23 06:39:00,44.9,42.0,30.27,SSE,165,2.7,2.7,89,0.00,,,0.00,TxWx,2013-09-23 11:39:00,
2013-09-23 06:44:00,44.8,42.0,30.27,SSE,164,1.8,1.8,89,0.00,,,0.00,TxWx,2013-09-23 11:44:00,
2013-09-23 06:49:00,44.8,42.0,30.28,SSE,167,2.1,2.1,89,0.00,,,0.00,TxWx,2013-09-23 11:49:00,
2013-09-23 06:54:00,44.6,42.0,30.28,SSE,163,1.5,1.8,89,0.00,,,0.00,TxWx,2013-09-23 11:54:00,
2013-09-23 06:59:00,44.9,42.0,30.27,SSE,165,3.3,3.3,89,0.00,,,0.00,TxWx,2013-09-23 11:59:00,
2013-09-23 07:04:00,45.0,42.0,30.27,SSE,165,1.2,1.2,89,0.00,,,0.00,TxWx,2013-09-23 12:04:00,
2013-09-23 07:09:00,45.1,42.0,30.27,SSE,165,3.3,3.6,89,0.00,,,0.00,TxWx,2013-09-23 12:09:00,
2013-09-23 07:14:00,45.4,42.0,30.27,SSE,164,4.5,4.5,89,0.00,,,0.00,TxWx,2013-09-23 12:14:00,
2013-09-23 07:19:00,45.7,43.0,30.27,SSE,164,4.2,4.2,89,0.00,,,0.00,TxWx,2013-09-23 12:19:00,
2013-09-23 07:24:00,46.1,43.0,30.28,SSE,165,4.5,4.5,89,0.00,,,0.00,TxWx,2013-09-23 12:24:00,
2013-09-23 07:29:00,46.8,43.0,30.28,SSE,164,1.5,2.1,88,0.00,,,0.00,TxWx,2013-09-23 12:29:00,
2013-09-23 07:34:00,47.3,43.0,30.28,SSE,165,3.3,3.3,87,0.00,,,0.00,TxWx,2013-09-23 12:34:00,
2013-09-23 07:39:00,47.8,44.0,30.28,SSE,165,5.4,5.4,85,0.00,,,0.00,TxWx,2013-09-23 12:39:00,
2013-09-23 07:44:00,48.2,43.0,30.28,South,169,2.7,3.3,84,0.00,,,0.00,TxWx,2013-09-23 12:44:00,
2013-09-23 07:49:00,48.7,44.0,30.28,SSE,165,5.1,5.4,83,0.00,,,0.00,TxWx,2013-09-23 12:49:00,
2013-09-23 07:54:00,49.3,44.0,30.27,SSE,165,3.0,3.6,82,0.00,,,0.00,TxWx,2013-09-23 12:54:00,
2013-09-23 07:59:00,49.8,44.0,30.28,SSE,165,4.2,4.5,80,0.00,,,0.00,TxWx,2013-09-23 12:59:00,
2013-09-23 08:04:00,50.2,44.0,30.28,SSE,165,2.4,3.0,79,0.00,,,0.00,TxWx,2013-09-23 13:04:00,
2013-09-23 08:09:00,50.5,44.0,30.28,SSE,166,8.7,10.5,78,0.00,,,0.00,TxWx,2013-09-23 13:09:00,
2013-09-23 08:14:00,51.0,44.0,30.28,SSE,166,2.4,2.7,77,0.00,,,0.00,TxWx,2013-09-23 13:14:00,
2013-09-23 08:19:00,51.1,44.0,30.28,SSE,167,8.1,8.1,76,0.00,,,0.00,TxWx,2013-09-23 13:19:00,
2013-09-23 08:24:00,51.5,44.0,30.28,SSE,164,5.1,5.7,76,0.00,,,0.00,TxWx,2013-09-23 13:24:00,
2013-09-23 08:29:00,51.7,44.0,30.28,SSE,167,4.5,5.4,75,0.00,,,0.00,TxWx,2013-09-23 13:29:00,
2013-09-23 08:34:00,52.2,44.0,30.28,SSE,167,1.5,1.5,74,0.00,,,0.00,TxWx,2013-09-23 13:34:00,
2013-09-23 08:39:00,52.2,44.0,30.28,SSE,167,1.8,2.1,74,0.00,,,0.00,TxWx,2013-09-23 13:39:00,
2013-09-23 08:44:00,52.5,44.0,30.29,South,169,3.6,3.6,74,0.00,,,0.00,TxWx,2013-09-23 13:44:00,
2013-09-23 08:49:00,52.8,45.0,30.28,SSE,164,2.7,3.0,74,0.00,,,0.00,TxWx,2013-09-23 13:49:00,
2013-09-23 08:54:00,52.8,44.0,30.28,SSE,165,7.5,7.5,73,0.00,,,0.00,TxWx,2013-09-23 13:54:00,
2013-09-23 08:59:00,53.1,45.0,30.28,SSE,168,3.0,3.3,73,0.00,,,0.00,TxWx,2013-09-23 13:59:00,
2013-09-23 09:04:00,53.5,44.0,30.28,SSE,165,5.1,6.3,73,0.00,,,0.00,TxWx,2013-09-23 14:04:00,
2013-09-23 09:09:00,53.5,45.0,30.28,South,169,4.5,4.5,72,0.00,,,0.00,TxWx,2013-09-23 14:09:00,
2013-09-23 09:14:00,53.7,45.0,30.28,SSE,164,5.4,7.2,72,0.00,,,0.00,TxWx,2013-09-23 14:14:00,
2013-09-23 09:19:00,54.1,45.0,30.28,SSE,165,6.9,7.5,72,0.00,,,0.00,TxWx,2013-09-23 14:19:00,
2013-09-23 09:24:00,54.1,45.0,30.28,SSE,168,5.7,5.7,72,0.00,,,0.00,TxWx,2013-09-23 14:24:00,
2013-09-23 09:29:00,54.2,45.0,30.28,SSE,166,4.5,4.5,72,0.00,,,0.00,TxWx,2013-09-23 14:29:00,
2013-09-23 09:34:00,54.6,46.0,30.28,SSE,168,7.8,7.8,72,0.00,,,0.00,TxWx,2013-09-23 14:34:00,
2013-09-23 09:39:00,54.9,46.0,30.28,SSE,168,6.3,6.9,71,0.00,,,0.00,TxWx,2013-09-23 14:39:00,
2013-09-23 09:44:00,55.3,46.0,30.28,SSE,168,3.3,3.3,71,0.00,,,0.00,TxWx,2013-09-23 14:44:00,
2013-09-23 09:49:00,55.4,45.0,30.29,SSE,167,7.2,7.2,70,0.00,,,0.00,TxWx,2013-09-23 14:49:00,
2013-09-23 09:54:00,56.2,46.0,30.28,SSE,167,4.8,5.4,70,0.00,,,0.00,TxWx,2013-09-23 14:54:00,
2013-09-23 09:59:00,55.8,46.0,30.28,SSE,167,4.8,4.8,69,0.00,,,0.00,TxWx,2013-09-23 14:59:00,
2013-09-23 10:04:00,56.2,46.0,30.28,SSE,166,5.7,5.7,69,0.00,,,0.00,TxWx,2013-09-23 15:04:00,
2013-09-23 10:09:00,55.8,45.0,30.28,SSE,168,8.1,8.4,68,0.00,,,0.00,TxWx,2013-09-23 15:09:00,
2013-09-23 10:14:00,55.8,46.0,30.29,SSE,167,8.1,8.4,68,0.00,,,0.00,TxWx,2013-09-23 15:14:00,
2013-09-23 10:19:00,56.6,47.0,30.29,SSE,167,4.2,4.5,69,0.00,,,0.00,TxWx,2013-09-23 15:19:00,
2013-09-23 10:24:00,57.1,47.0,30.28,SSE,166,5.4,5.4,68,0.00,,,0.00,TxWx,2013-09-23 15:24:00,
2013-09-23 10:29:00,57.5,47.0,30.28,South,169,4.8,5.1,68,0.00,,,0.00,TxWx,2013-09-23 15:29:00,
2013-09-23 10:34:00,57.6,47.0,30.28,SSE,168,2.7,2.7,67,0.00,,,0.00,TxWx,2013-09-23 15:34:00,
2013-09-23 10:39:00,58.3,47.0,30.28,SSE,165,7.8,7.8,67,0.00,,,0.00,TxWx,2013-09-23 15:39:00,
2013-09-23 10:44:00,58.0,47.0,30.28,SSE,168,5.1,5.1,66,0.00,,,0.00,TxWx,2013-09-23 15:44:00,
2013-09-23 10:49:00,58.8,48.0,30.29,South,169,7.2,7.2,66,0.00,,,0.00,TxWx,2013-09-23 15:49:00,
2013-09-23 10:54:00,59.0,47.0,30.29,SSE,167,2.7,3.0,65,0.00,,,0.00,TxWx,2013-09-23 15:54:00,
2013-09-23 10:59:00,60.0,48.0,30.29,SSE,164,5.4,5.7,65,0.00,,,0.00,TxWx,2013-09-23 15:59:00,
2013-09-23 11:04:00,59.2,46.0,30.29,SSE,168,3.9,4.2,63,0.00,,,0.00,TxWx,2013-09-23 16:04:00,
2013-09-23 11:09:00,59.9,47.0,30.28,SSE,164,4.5,5.7,63,0.00,,,0.00,TxWx,2013-09-23 16:09:00,
2013-09-23 11:14:00,60.6,48.0,30.28,South,169,3.3,3.3,63,0.00,,,0.00,TxWx,2013-09-23 16:14:00,
2013-09-23 11:19:00,60.7,48.0,30.28,SSE,163,3.9,3.9,62,0.00,,,0.00,TxWx,2013-09-23 16:19:00,
2013-09-23 11:24:00,61.1,48.0,30.28,SSE,163,3.0,3.0,63,0.00,,,0.00,TxWx,2013-09-23 16:24:00,
2013-09-23 11:29:00,60.8,47.0,30.28,SSE,166,2.1,2.1,61,0.00,,,0.00,TxWx,2013-09-23 16:29:00,
2013-09-23 11:34:00,60.9,47.0,30.28,SSE,167,1.5,2.1,60,0.00,,,0.00,TxWx,2013-09-23 16:34:00,
2013-09-23 11:39:00,61.0,47.0,30.28,SSE,166,3.6,3.6,60,0.00,,,0.00,TxWx,2013-09-23 16:39:00,
2013-09-23 11:44:00,61.5,46.0,30.28,SSE,165,5.7,6.6,59,0.00,,,0.00,TxWx,2013-09-23 16:44:00,
2013-09-23 11:49:00,61.7,47.0,30.28,SSE,166,3.3,4.2,58,0.00,,,0.00,TxWx,2013-09-23 16:49:00,
2013-09-23 11:54:00,62.1,47.0,30.28,SSE,163,2.4,2.4,58,0.00,,,0.00,TxWx,2013-09-23 16:54:00,
2013-09-23 11:59:00,62.9,48.0,30.28,SSE,164,7.5,8.1,59,0.00,,,0.00,TxWx,2013-09-23 16:59:00,
2013-09-23 12:04:00,63.2,47.0,30.28,SSE,166,3.0,3.0,57,0.00,,,0.00,TxWx,2013-09-23 17:04:00,
2013-09-23 12:09:00,63.5,47.0,30.27,SSE,168,3.3,3.6,56,0.00,,,0.00,TxWx,2013-09-23 17:09:00,
2013-09-23 12:14:00,64.6,49.0,30.27,SSE,166,5.4,5.4,56,0.00,,,0.00,TxWx,2013-09-23 17:14:00,
2013-09-23 12:19:00,63.2,45.0,30.27,SSE,167,8.4,9.0,53,0.00,,,0.00,TxWx,2013-09-23 17:19:00,
2013-09-23 12:24:00,63.7,46.0,30.27,South,169,3.3,3.6,53,0.00,,,0.00,TxWx,2013-09-23 17:24:00,
2013-09-23 12:29:00,64.5,46.0,30.27,South,169,5.1,5.1,53,0.00,,,0.00,TxWx,2013-09-23 17:29:00,
2013-09-23 12:35:00,64.5,46.0,30.27,SSE,168,8.7,8.7,52,0.00,,,0.00,TxWx,2013-09-23 17:35:00,
2013-09-23 12:40:00,64.4,46.0,30.27,SSE,166,6.9,7.2,52,0.00,,,0.00,TxWx,2013-09-23 17:40:00,
2013-09-23 12:45:00,65.0,47.0,30.26,South,170,3.6,3.6,52,0.00,,,0.00,TxWx,2013-09-23 17:45:00,
2013-09-23 12:50:00,65.8,47.0,30.26,South,171,7.2,7.8,51,0.00,,,0.00,TxWx,2013-09-23 17:50:00,
2013-09-23 12:55:00,66.3,47.0,30.26,SSE,167,3.0,3.0,51,0.00,,,0.00,TxWx,2013-09-23 17:55:00,
2013-09-23 13:00:00,65.3,45.0,30.26,SSE,164,6.9,6.9,49,0.00,,,0.00,TxWx,2013-09-23 18:00:00,
2013-09-23 13:05:00,65.9,47.0,30.26,South,180,2.1,2.7,51,0.00,,,0.00,TxWx,2013-09-23 18:05:00,
2013-09-23 13:10:00,66.2,47.0,30.26,South,180,2.1,2.1,51,0.00,,,0.00,TxWx,2013-09-23 18:10:00,
2013-09-23 13:15:00,66.6,47.0,30.25,South,169,3.3,3.3,49,0.00,,,0.00,TxWx,2013-09-23 18:15:00,
2013-09-23 13:20:00,66.5,47.0,30.26,SSE,166,4.2,4.2,48,0.00,,,0.00,TxWx,2013-09-23 18:20:00,
2013-09-23 13:25:00,67.3,47.0,30.25,SSE,162,3.9,4.5,49,0.00,,,0.00,TxWx,2013-09-23 18:25:00,
2013-09-23 13:30:00,67.8,48.0,30.25,SSE,167,5.4,5.4,48,0.00,,,0.00,TxWx,2013-09-23 18:30:00,
2013-09-23 13:35:00,67.0,46.0,30.25,SSE,164,5.7,5.7,47,0.00,,,0.00,TxWx,2013-09-23 18:35:00,
2013-09-23 13:40:00,67.4,46.0,30.24,South,169,5.4,5.7,48,0.00,,,0.00,TxWx,2013-09-23 18:40:00,
2013-09-23 13:46:00,67.0,45.0,30.25,SSE,167,7.8,8.4,46,0.00,,,0.00,TxWx,2013-09-23 18:46:00,
2013-09-23 13:51:00,67.0,45.0,30.24,SSE,164,5.4,5.7,46,0.00,,,0.00,TxWx,2013-09-23 18:51:00,
2013-09-23 13:56:00,67.3,45.0,30.24,South,169,7.5,7.8,46,0.00,,,0.00,TxWx,2013-09-23 18:56:00,
2013-09-23 14:01:00,67.6,46.0,30.24,South,169,3.0,3.0,45,0.00,,,0.00,TxWx,2013-09-23 19:01:00,
2013-09-23 14:06:00,67.5,46.0,30.24,South,169,8.1,8.4,45,0.00,,,0.00,TxWx,2013-09-23 19:06:00,
2013-09-23 14:11:00,68.3,46.0,30.23,SSE,162,2.7,2.7,46,0.00,,,0.00,TxWx,2013-09-23 19:11:00,
2013-09-23 14:16:00,68.4,46.0,30.23,SSE,166,7.2,8.1,46,0.00,,,0.00,TxWx,2013-09-23 19:16:00,
2013-09-23 14:21:00,68.0,45.0,30.23,SSE,165,6.9,7.5,44,0.00,,,0.00,TxWx,2013-09-23 19:21:00,
2013-09-23 14:26:00,68.2,46.0,30.23,SSE,163,3.3,3.3,45,0.00,,,0.00,TxWx,2013-09-23 19:26:00,
2013-09-23 14:31:00,68.1,46.0,30.23,SSE,165,3.6,3.9,45,0.00,,,0.00,TxWx,2013-09-23 19:31:00,
2013-09-23 14:36:00,68.7,47.0,30.23,SSE,167,5.1,7.2,45,0.00,,,0.00,TxWx,2013-09-23 19:36:00,
2013-09-23 14:41:00,69.0,46.0,30.23,South,171,2.1,2.1,44,0.00,,,0.00,TxWx,2013-09-23 19:41:00,
2013-09-23 14:46:00,69.3,46.0,30.22,SSE,167,6.0,6.0,45,0.00,,,0.00,TxWx,2013-09-23 19:46:00,
2013-09-23 14:51:00,69.4,46.0,30.22,SSE,164,3.3,3.3,45,0.00,,,0.00,TxWx,2013-09-23 19:51:00,
2013-09-23 14:56:00,69.5,47.0,30.22,SSE,168,3.6,3.9,44,0.00,,,0.00,TxWx,2013-09-23 19:56:00,
2013-09-23 15:01:00,69.4,46.0,30.22,SSE,167,2.4,3.0,43,0.00,,,0.00,TxWx,2013-09-23 20:01:00,
2013-09-23 15:06:00,69.1,45.0,30.22,SSE,167,1.5,1.8,43,0.00,,,0.00,TxWx,2013-09-23 20:06:00,
2013-09-23 15:11:00,69.2,46.0,30.22,SSE,167,4.8,4.8,43,0.00,,,0.00,TxWx,2013-09-23 20:11:00,
2013-09-23 15:16:00,69.1,46.0,30.22,SSE,166,4.5,4.5,44,0.00,,,0.00,TxWx,2013-09-23 20:16:00,
2013-09-23 15:21:00,69.5,46.0,30.21,SSE,165,10.5,10.5,44,0.00,,,0.00,TxWx,2013-09-23 20:21:00,
2013-09-23 15:26:00,69.5,46.0,30.21,SSE,165,6.9,6.9,43,0.00,,,0.00,TxWx,2013-09-23 20:26:00,
2013-09-23 15:31:00,69.7,46.0,30.22,SSE,162,2.4,3.0,43,0.00,,,0.00,TxWx,2013-09-23 20:31:00,
2013-09-23 15:36:00,69.6,46.0,30.21,SSE,166,6.3,6.3,42,0.00,,,0.00,TxWx,2013-09-23 20:36:00,
2013-09-23 15:41:00,69.8,45.0,30.21,SSE,165,6.9,7.2,42,0.00,,,0.00,TxWx,2013-09-23 20:41:00,
2013-09-23 15:46:00,70.0,46.0,30.21,SSE,164,2.4,2.4,43,0.00,,,0.00,TxWx,2013-09-23 20:46:00,
2013-09-23 15:51:00,70.0,45.0,30.21,SSE,163,11.1,11.1,42,0.00,,,0.00,TxWx,2013-09-23 20:51:00,
2013-09-23 15:56:00,70.0,45.0,30.21,SSE,166,6.3,7.2,41,0.00,,,0.00,TxWx,2013-09-23 20:56:00,
2013-09-23 16:01:00,69.8,45.0,30.21,SSE,168,3.0,3.0,42,0.00,,,0.00,TxWx,2013-09-23 21:01:00,
2013-09-23 16:06:00,70.0,46.0,30.21,SSE,163,4.8,4.8,43,0.00,,,0.00,TxWx,2013-09-23 21:06:00,
2013-09-23 16:11:00,69.6,45.0,30.21,SSE,165,4.8,4.8,42,0.00,,,0.00,TxWx,2013-09-23 21:11:00,
2013-09-23 16:16:00,70.5,47.0,30.21,SSE,165,4.5,4.5,42,0.00,,,0.00,TxWx,2013-09-23 21:16:00,
2013-09-23 16:21:00,70.2,45.0,30.21,SSE,165,6.0,7.2,42,0.00,,,0.00,TxWx,2013-09-23 21:21:00,
2013-09-23 16:26:00,70.2,45.0,30.21,SSE,164,3.6,4.2,42,0.00,,,0.00,TxWx,2013-09-23 21:26:00,
2013-09-23 16:31:00,70.3,46.0,30.21,SSE,166,3.9,4.2,42,0.00,,,0.00,TxWx,2013-09-23 21:31:00,
2013-09-23 16:36:00,70.7,47.0,30.21,South,178,3.6,3.9,42,0.00,,,0.00,TxWx,2013-09-23 21:36:00,
2013-09-23 16:41:00,70.1,46.0,30.21,SSE,164,5.7,5.7,42,0.00,,,0.00,TxWx,2013-09-23 21:41:00,
2013-09-23 16:46:00,69.9,45.0,30.21,SSE,167,5.7,6.6,41,0.00,,,0.00,TxWx,2013-09-23 21:46:00,
2013-09-23 16:51:00,69.7,45.0,30.21,SSE,166,5.4,5.7,41,0.00,,,0.00,TxWx,2013-09-23 21:51:00,
2013-09-23 16:56:00,70.1,46.0,30.21,South,172,1.5,1.8,42,0.00,,,0.00,TxWx,2013-09-23 21:56:00,
2013-09-23 17:01:00,70.0,46.0,30.21,SSE,164,2.1,2.4,43,0.00,,,0.00,TxWx,2013-09-23 22:01:00,
2013-09-23 17:06:00,69.9,46.0,30.20,SSE,164,3.9,4.8,43,0.00,,,0.00,TxWx,2013-09-23 22:06:00,
2013-09-23 17:11:00,70.0,47.0,30.20,SSE,166,2.7,2.7,44,0.00,,,0.00,TxWx,2013-09-23 22:11:00,
2013-09-23 17:16:00,69.8,46.0,30.21,SSE,163,4.2,4.5,43,0.00,,,0.00,TxWx,2013-09-23 22:16:00,
2013-09-23 17:21:00,70.0,46.0,30.21,SSE,166,1.8,1.8,43,0.00,,,0.00,TxWx,2013-09-23 22:21:00,
2013-09-23 17:26:00,69.6,46.0,30.21,SSE,163,3.0,3.6,43,0.00,,,0.00,TxWx,2013-09-23 22:26:00,
2013-09-23 17:31:00,69.5,46.0,30.21,SSE,164,2.7,3.3,43,0.00,,,0.00,TxWx,2013-09-23 22:31:00,
2013-09-23 17:36:00,69.0,46.0,30.21,SSE,166,3.9,4.5,43,0.00,,,0.00,TxWx,2013-09-23 22:36:00,
2013-09-23 17:41:00,69.0,46.0,30.21,SSE,166,3.0,3.0,44,0.00,,,0.00,TxWx,2013-09-23 22:41:00,
2013-09-23 17:46:00,68.6,46.0,30.21,SSE,167,3.6,3.6,44,0.00,,,0.00,TxWx,2013-09-23 22:46:00,
2013-09-23 17:51:00,68.6,46.0,30.21,SSE,165,3.9,4.8,45,0.00,,,0.00,TxWx,2013-09-23 22:51:00,
2013-09-23 17:56:00,68.5,46.0,30.21,SSE,162,1.5,1.8,45,0.00,,,0.00,TxWx,2013-09-23 22:56:00,
2013-09-23 18:01:00,68.3,46.0,30.21,SSE,162,2.7,2.7,46,0.00,,,0.00,TxWx,2013-09-23 23:01:00,
2013-09-23 18:06:00,67.9,46.0,30.21,SSE,164,2.4,2.4,46,0.00,,,0.00,TxWx,2013-09-23 23:06:00,
2013-09-23 18:11:00,67.5,46.0,30.21,SSE,163,3.3,3.3,47,0.00,,,0.00,TxWx,2013-09-23 23:11:00,
2013-09-23 18:16:00,67.1,47.0,30.21,SSE,165,2.1,2.1,48,0.00,,,0.00,TxWx,2013-09-23 23:16:00,
2013-09-23 18:21:00,66.8,47.0,30.21,SSE,167,1.5,1.8,49,0.00,,,0.00,TxWx,2013-09-23 23:21:00,
2013-09-23 18:26:00,66.5,47.0,30.22,SSE,168,1.5,1.5,50,0.00,,,0.00,TxWx,2013-09-23 23:26:00,
2013-09-23 18:31:00,66.0,47.0,30.22,SSE,165,1.8,2.1,51,0.00,,,0.00,TxWx,2013-09-23 23:31:00,
2013-09-23 18:36:00,65.6,48.0,30.22,SSE,167,3.0,3.0,52,0.00,,,0.00,TxWx,2013-09-23 23:36:00,
2013-09-23 18:41:00,65.2,47.0,30.22,SSE,165,2.4,2.7,53,0.00,,,0.00,TxWx,2013-09-23 23:41:00,
2013-09-23 18:46:00,64.9,48.0,30.22,SSE,167,1.5,1.5,54,0.00,,,0.00,TxWx,2013-09-23 23:46:00,
2013-09-23 18:51:00,64.4,47.0,30.22,SSE,168,0.6,0.9,54,0.00,,,0.00,TxWx,2013-09-23 23:51:00,
2013-09-23 18:56:00,63.9,47.0,30.21,SSE,166,0.9,0.9,55,0.00,,,0.00,TxWx,2013-09-23 23:56:00,
2013-09-23 19:01:00,63.6,47.0,30.21,SSE,167,1.5,1.5,55,0.00,,,0.00,TxWx,2013-09-24 00:01:00,
2013-09-23 19:06:00,63.1,47.0,30.21,SSE,166,1.2,1.2,57,0.00,,,0.00,TxWx,2013-09-24 00:06:00,
2013-09-23 19:11:00,62.8,47.0,30.21,SSE,165,3.3,3.3,57,0.00,,,0.00,TxWx,2013-09-24 00:11:00,
2013-09-23 19:16:00,62.7,47.0,30.21,SSE,167,1.2,1.2,57,0.00,,,0.00,TxWx,2013-09-24 00:16:00,
2013-09-23 19:21:00,62.4,47.0,30.21,SSE,166,0.9,0.9,58,0.00,,,0.00,TxWx,2013-09-24 00:21:00,
2013-09-23 19:26:00,61.9,47.0,30.21,SSE,167,2.1,2.1,59,0.00,,,0.00,TxWx,2013-09-24 00:26:00,
2013-09-23 19:31:00,61.5,47.0,30.21,SSE,165,2.1,2.1,59,0.00,,,0.00,TxWx,2013-09-24 00:31:00,
2013-09-23 19:36:00,61.3,47.0,30.21,SSE,164,1.8,1.8,60,0.00,,,0.00,TxWx,2013-09-24 00:36:00,
2013-09-23 19:41:00,61.1,47.0,30.21,SSE,167,3.0,3.6,61,0.00,,,0.00,TxWx,2013-09-24 00:41:00,
2013-09-23 19:46:00,61.0,47.0,30.21,SSE,168,1.2,1.5,61,0.00,,,0.00,TxWx,2013-09-24 00:46:00,
2013-09-23 19:51:00,60.8,48.0,30.22,SSE,166,2.1,2.1,62,0.00,,,0.00,TxWx,2013-09-24 00:51:00,
2013-09-23 19:56:00,60.8,48.0,30.22,SSE,167,2.4,2.4,62,0.00,,,0.00,TxWx,2013-09-24 00:56:00,
2013-09-23 20:01:00,60.7,48.0,30.22,SSE,168,1.8,1.8,62,0.00,,,0.00,TxWx,2013-09-24 01:01:00,
2013-09-23 20:06:00,60.6,47.0,30.22,SSE,167,1.5,1.5,61,0.00,,,0.00,TxWx,2013-09-24 01:06:00,
2013-09-23 20:11:00,60.4,47.0,30.22,SSE,167,2.1,3.0,62,0.00,,,0.00,TxWx,2013-09-24 01:11:00,
2013-09-23 20:16:00,60.4,47.0,30.22,SSE,167,2.4,2.4,62,0.00,,,0.00,TxWx,2013-09-24 01:16:00,
2013-09-23 20:21:00,60.1,47.0,30.21,SSE,168,1.8,1.8,62,0.00,,,0.00,TxWx,2013-09-24 01:21:00,
2013-09-23 20:26:00,60.1,47.0,30.21,SSE,166,2.7,2.7,63,0.00,,,0.00,TxWx,2013-09-24 01:26:00,
2013-09-23 20:31:00,59.9,47.0,30.21,SSE,166,2.1,2.1,63,0.00,,,0.00,TxWx,2013-09-24 01:31:00,
2013-09-23 20:36:00,59.7,47.0,30.21,SSE,166,0.6,0.6,63,0.00,,,0.00,TxWx,2013-09-24 01:36:00,
2013-09-23 20:44:00,59.3,46.0,30.21,SSE,162,1.8,2.4,63,0.00,,,0.00,TxWx,2013-09-24 01:44:00,
2013-09-23 20:49:00,59.3,46.0,30.21,SSE,164,3.3,3.3,63,0.00,,,0.00,TxWx,2013-09-24 01:49:00,
2013-09-23 20:53:00,59.1,47.0,30.21,SSE,166,4.2,4.2,64,0.00,,,0.00,TxWx,2013-09-24 01:53:00,
2013-09-23 20:58:00,59.1,47.0,30.21,SSE,167,3.0,3.0,64,0.00,,,0.00,TxWx,2013-09-24 01:58:00,
2013-09-23 21:03:00,58.8,47.0,30.22,SSE,164,2.1,2.4,65,0.00,,,0.00,TxWx,2013-09-24 02:03:00,
2013-09-23 21:08:00,58.8,47.0,30.22,SSE,167,3.3,3.6,65,0.00,,,0.00,TxWx,2013-09-24 02:08:00,
2013-09-23 21:13:00,58.8,47.0,30.22,SSE,167,3.6,3.6,65,0.00,,,0.00,TxWx,2013-09-24 02:13:00,
2013-09-23 21:18:00,58.8,47.0,30.22,SSE,164,3.3,3.6,65,0.00,,,0.00,TxWx,2013-09-24 02:18:00,
2013-09-23 21:23:00,58.8,47.0,30.22,SSE,167,1.8,1.8,65,0.00,,,0.00,TxWx,2013-09-24 02:23:00,
2013-09-23 21:29:00,58.6,47.0,30.22,SSE,165,5.4,5.4,65,0.00,,,0.00,TxWx,2013-09-24 02:29:00,
2013-09-23 21:34:00,58.6,47.0,30.22,SSE,166,3.0,3.6,65,0.00,,,0.00,TxWx,2013-09-24 02:34:00,
2013-09-23 21:39:00,58.5,47.0,30.22,SSE,167,5.7,5.7,66,0.00,,,0.00,TxWx,2013-09-24 02:39:00,
2013-09-23 21:43:00,58.5,47.0,30.22,SSE,166,1.8,1.8,66,0.00,,,0.00,TxWx,2013-09-24 02:43:00,
2013-09-23 21:49:00,58.4,46.0,30.23,SSE,166,6.9,6.9,66,0.00,,,0.00,TxWx,2013-09-24 02:49:00,
2013-09-23 21:54:00,58.2,47.0,30.23,SSE,165,7.2,7.2,66,0.00,,,0.00,TxWx,2013-09-24 02:54:00,
2013-09-23 21:59:00,58.1,47.0,30.23,SSE,165,2.1,2.4,67,0.00,,,0.00,TxWx,2013-09-24 02:59:00,
2013-09-23 22:04:00,58.0,47.0,30.23,SSE,166,4.8,5.4,67,0.00,,,0.00,TxWx,2013-09-24 03:04:00,
2013-09-23 22:09:00,57.9,47.0,30.23,SSE,166,2.4,2.7,67,0.00,,,0.00,TxWx,2013-09-24 03:09:00,
2013-09-23 22:14:00,57.8,47.0,30.23,SSE,166,1.8,1.8,67,0.00,,,0.00,TxWx,2013-09-24 03:14:00,
2013-09-23 22:19:00,57.8,47.0,30.23,SSE,165,4.2,5.4,67,0.00,,,0.00,TxWx,2013-09-24 03:19:00,
2013-09-23 22:24:00,57.6,47.0,30.23,SSE,168,5.7,5.7,67,0.00,,,0.00,TxWx,2013-09-24 03:24:00,
2013-09-23 22:29:00,57.5,46.0,30.23,SSE,165,10.5,10.5,67,0.00,,,0.00,TxWx,2013-09-24 03:29:00,
2013-09-23 22:34:00,57.5,46.0,30.23,SSE,162,1.8,2.1,67,0.00,,,0.00,TxWx,2013-09-24 03:34:00,
2013-09-23 22:39:00,57.3,46.0,30.23,SSE,163,8.7,9.9,67,0.00,,,0.00,TxWx,2013-09-24 03:39:00,
2013-09-23 22:44:00,57.2,46.0,30.23,SSE,164,9.0,9.0,67,0.00,,,0.00,TxWx,2013-09-24 03:44:00,
2013-09-23 22:49:00,57.0,46.0,30.23,SSE,165,6.9,6.9,68,0.00,,,0.00,TxWx,2013-09-24 03:49:00,
2013-09-23 22:54:00,56.9,47.0,30.22,SSE,162,2.7,3.3,68,0.00,,,0.00,TxWx,2013-09-24 03:54:00,
2013-09-23 22:59:00,56.7,47.0,30.22,South,170,6.6,6.6,68,0.00,,,0.00,TxWx,2013-09-24 03:59:00,
2013-09-23 23:01:00,56.7,47.0,30.23,SSE,165,6.9,8.1,69,0.00,,,0.00,TxWx,2013-09-24 04:01:00,
2013-09-23 23:02:00,56.6,47.0,30.22,SSE,165,3.0,3.0,69,0.00,,,0.00,TxWx,2013-09-24 04:02:00,
2013-09-23 23:07:00,56.4,46.0,30.23,SSE,164,6.3,8.7,69,0.00,,,0.00,TxWx,2013-09-24 04:07:00,
2013-09-23 23:12:00,56.3,46.0,30.23,SSE,165,3.9,4.5,69,0.00,,,0.00,TxWx,2013-09-24 04:12:00,
2013-09-23 23:17:00,56.1,46.0,30.22,SSE,167,4.8,4.8,70,0.00,,,0.00,TxWx,2013-09-24 04:17:00,
2013-09-23 23:22:00,55.9,46.0,30.23,South,169,4.5,4.5,70,0.00,,,0.00,TxWx,2013-09-24 04:22:00,
2013-09-23 23:27:00,55.8,46.0,30.23,SSE,165,10.2,10.2,70,0.00,,,0.00,TxWx,2013-09-24 04:27:00,
2013-09-23 23:32:00,55.6,47.0,30.23,SSE,168,5.1,6.0,71,0.00,,,0.00,TxWx,2013-09-24 04:32:00,
2013-09-23 23:37:00,55.5,46.0,30.23,SSE,167,3.9,3.9,71,0.00,,,0.00,TxWx,2013-09-24 04:37:00,
2013-09-23 23:42:00,55.3,46.0,30.23,SSE,166,5.4,5.4,72,0.00,,,0.00,TxWx,2013-09-24 04:42:00,
2013-09-23 23:47:00,55.1,46.0,30.23,SSE,166,7.5,7.5,72,0.00,,,0.00,TxWx,2013-09-24 04:47:00,
2013-09-23 23:52:00,55.0,46.0,30.23,SSE,168,3.6,3.6,73,0.00,,,0.00,TxWx,2013-09-24 04:52:00,
2013-09-23 23:57:00,54.9,46.0,30.23,SSE,166,6.0,6.0,73,0.00,,,0.00,TxWx,2013-09-24 04:57:00,